{"data":{"norad_id":42986,"intl_designator":"2017-037E","name":"COSMOS 2523","alt_names":[],"object_type":"PAYLOAD","status":"ACTIVE","operator":null,"country":"CIS","launch_date":"2017-06-23","launch_site_code":"PLMSC","launch_vehicle":null,"mission":null,"orbit_class":"UNKNOWN","rcs_meters":null,"size_class":null,"mass_kg":null,"dimensions":null,"purposes":[],"wikipedia_slug":null,"has_3d_model":false,"image_url":null,"decayed_at":null,"tle_current":{"epoch":"2026-05-25T04:23:03.444864Z","epoch_age_seconds":52492,"freshness":"FRESH","line1":"1 42986U 17037E   26145.18267876  .00001693  00000+0  15224-3 0  9995","line2":"2 42986  97.4993 159.2654 0065580 308.0149  51.5163 14.95349725465525","mean_motion":14.95349725,"eccentricity":0.006558,"inclination_deg":97.4993,"raan_deg":159.2654,"arg_perigee_deg":308.0149,"mean_anomaly_deg":51.5163,"bstar":0.00015224,"rev_number":46552,"period_min":96.298543138462,"perigee_km":535.6475434976,"apogee_km":626.92735457114,"semimajor_km":6959.4244490344,"source":"CELESTRAK","updated_at":"2026-05-25T13:37:55.727729Z"}}}